Location: Theodore Roosevelt National Park
(46.9990°N, 103.4631°W)
Time: 23:51:16
(UTC-07:00)

Iridium 37 - Visible Passes

Search period start: 16 January 2017 00:00
Search period end: 26 January 2017 00:00
Orbit: 776 x 779 km, 86.4° (Epoch: 16 January)

Date Brightness Start Highest point End Pass type
(mag) Time Alt. Az. Time Alt. Az. Time Alt. Az.
16 Jan 8.0 03:56:06 10° NNE 03:59:43 19° ENE 04:03:19 10° ESE visible
16 Jan 5.4 05:35:46 10° N 05:40:56 64° W 05:46:05 10° S visible
16 Jan 7.2 18:36:17 10° SW 18:41:00 34° WNW 18:45:44 10° NNW visible
17 Jan 8.6 03:24:36 10° NE 03:25:44 11° ENE 03:26:51 10° ENE visible
17 Jan 5.6 05:02:11 10° N 05:07:26 75° E 05:12:38 10° S visible
17 Jan 7.0 06:44:29 10° NW 06:47:29 16° WNW 06:50:28 10° WSW visible
17 Jan 6.2 18:02:10 10° SSW 18:07:18 59° W 18:12:29 10° N visible
18 Jan 6.6 04:28:49 10° N 04:33:49 43° E 04:38:45 10° SSE visible
18 Jan 6.4 06:10:00 10° NNW 06:14:18 26° W 06:18:34 10° SW visible
18 Jan 5.5 17:28:32 10° S 17:33:45 81° E 17:38:59 10° N visible
18 Jan 8.4 19:12:16 10° WSW 19:15:10 15° WNW 19:18:04 10° NW visible
19 Jan 7.5 03:55:44 10° NNE 04:00:02 25° ENE 04:04:19 10° SE visible
19 Jan 5.7 05:36:01 10° NNW 05:40:58 45° W 05:45:55 10° SSW visible
19 Jan 7.8 18:37:01 10° SW 18:41:16 25° WNW 18:45:33 10° NNW visible
20 Jan 8.2 03:23:11 10° NE 03:26:09 15° ENE 03:29:05 10° ESE visible
20 Jan 5.4 05:02:18 10° N 05:07:33 79° W 05:12:45 10° S visible
20 Jan 7.3 06:46:02 10° WNW 06:47:19 11° WNW 06:48:37 10° W visible
20 Jan 6.8 18:02:34 10° SSW 18:07:29 42° W 18:12:27 10° N visible
21 Jan 6.0 04:31:42 32° NNE 04:33:59 60° E 04:39:08 10° SSE visible
21 Jan 6.7 06:12:24 16° NW 06:14:13 19° WNW 06:17:49 10° WSW visible
21 Jan 5.8 17:28:40 10° S 17:33:51 73° W 17:39:06 10° N visible
21 Jan 8.7 19:14:40 10° WNW 19:15:35 10° WNW 19:16:29 10° NW visible
22 Jan 7.0 04:00:52 34° E 04:00:52 34° E 04:05:03 10° SE visible
22 Jan 6.2 05:41:29 32° W 05:41:29 32° W 05:45:34 10° SW visible
22 Jan 8.2 18:38:02 10° WSW 18:41:36 18° WNW 18:45:09 10° NNW visible
23 Jan 8.1 03:29:22 14° ESE 03:29:22 14° ESE 03:30:22 10° ESE visible
23 Jan 6.5 05:09:58 31° SSW 05:09:58 31° SSW 05:12:42 10° SSW visible
23 Jan 7.5 18:03:10 10° SW 18:07:44 30° WNW 18:12:21 10° NNW visible
24 Jan 7.5 04:38:11 17° S 04:38:11 17° S 04:39:22 10° S visible
24 Jan 6.5 17:28:57 10° SSW 17:34:01 52° W 17:39:09 10° N visible
25 Jan8.404:06:15SSE04:06:15SSE03:53:11Nvisible
25 Jan 8.4 18:39:32 10° W 18:41:58 13° WNW 18:44:24 10° NW visible
